Simultaneous Nadir Overpasses (SNOs) Predictions

Prediction of SNOs between GOES-16 and AQUA Satellite Orbit:

Table of predicted SNOs for the next 14.0 days since TLE Epoch: 10/10/2020
Index Date Time (GOES-16) GOES-16 Lat,Lon AQUA Lat,Lon Distance(km) Time Diff (sec)
1 10/11/2020 06:38:20 -0.00, -75.25 0.01, -75.36 12.83 80
2 10/13/2020 06:23:28 -0.00, -75.27 -0.63, -72.41 326.21 80
3 10/13/2020 18:44:52 0.01, -75.29 -0.46, -77.60 261.61 80
4 10/15/2020 18:35:19 0.00, -75.33 0.13, -74.63 78.28 80
5 10/17/2020 18:23:07 0.00, -75.36 0.79, -71.68 418.62 80
6 10/18/2020 06:44:23 -0.00, -75.36 0.29, -76.84 168.43 80
7 10/20/2020 06:29:30 0.00, -75.39 -0.31, -73.88 172.21 80
8 10/20/2020 18:50:53 0.00, -75.42 -0.76, -79.07 415.48 80
9 10/22/2020 18:38:41 0.00, -75.46 -0.16, -76.11 74.30 80
